Location: Detroit
(42.3310°N, 83.0460°W)
Time: 07:30:45
(UTC-04:00)

Courier 1B Rocket - Visible Passes

Search period start: 20 April 2024 00:00
Search period end: 30 April 2024 00:00
Orbit: 920 x 1201 km, 28.2° (Epoch: 19 April)

Date Brightness Start Highest point End Pass type
(mag) Time Alt. Az. Time Alt. Az. Time Alt. Az.
20 Apr 7.0 05:02:11 13° S 05:05:28 17° SSE 05:09:53 10° SE visible
21 Apr 7.1 04:04:37 14° SSE 04:04:37 14° SSE 04:07:57 10° SE visible
21 Apr 6.7 05:51:24 10° SW 05:57:07 24° S 06:02:34 10° ESE visible
22 Apr 6.7 04:53:23 18° SSW 04:56:06 21° SSE 05:01:23 10° ESE visible
23 Apr 6.9 03:55:46 18° SSE 03:55:46 18° SSE 03:59:55 10° ESE visible
23 Apr 6.5 05:42:06 11° SW 05:47:48 26° S 05:53:37 10° ESE visible
24 Apr 6.5 04:44:30 22° SSW 04:46:46 25° S 04:52:34 10° ESE visible
25 Apr 6.7 03:46:53 21° SSE 03:46:53 21° SSE 03:51:17 10° ESE visible
25 Apr 6.4 05:33:14 13° SW 05:38:28 27° S 05:44:28 10° SE visible
26 Apr 7.4 02:49:17 11° ESE 02:49:17 11° ESE 02:49:43 10° ESE visible
26 Apr 6.3 04:35:37 25° SSW 04:37:24 27° S 04:43:32 10° ESE visible
27 Apr 6.6 03:38:02 24° SSE 03:38:02 24° SSE 03:42:22 10° ESE visible
27 Apr 6.4 05:24:23 15° SW 05:29:07 27° S 05:35:11 10° SE visible
28 Apr 7.4 02:40:29 12° ESE 02:40:29 12° ESE 02:41:00 10° ESE visible
28 Apr 6.3 04:26:50 27° SSW 04:28:03 28° S 04:34:19 10° SE visible
29 Apr 6.6 03:29:20 24° SSE 03:29:20 24° SSE 03:33:16 10° ESE visible
29 Apr 6.5 05:15:42 16° SW 05:19:46 25° S 05:25:41 10° SE visible
